FW6365 Weather Reports


Display with metric or nautical units.
time (UTC)temp
F
wind
direction
speed
MPH
gust
MPH
rain 1hr
in
rain 24hr
in
rain mn
in
humidity
%
barometer
mb
20260901044024 59 0 0.0 1.0 0.00 0.00 0.00 88 1009.1
20260901043528 60 0 0.0 1.0 0.00 0.00 0.00 87 1009.0
20260901043059 60 0 0.0 0.0 0.00 0.00 0.00 86 1008.9
20260901042527 60 0 0.0 0.0 0.00 0.00 0.00 85 1008.9
20260901042027 61 0 0.0 0.0 0.00 0.00 0.00 85 1008.9
20260901041550 61 0 0.0 0.0 0.00 0.00 0.00 84 1008.9
20260901041024 61 0 0.0 0.0 0.00 0.00 0.00 83 1008.8
20260901040529 62 0 0.0 0.0 0.00 0.00 0.00 82 1008.7
20260901040055 62 0 0.0 1.0 0.00 0.00 0.00 82 1008.6
20260901035525 63 0 0.0 1.0 0.00 0.00 0.00 82 1008.7
20260901035029 63 0 0.0 1.0 0.00 0.00 0.00 81 1008.6
20260901034552 63 0 0.0 1.0 0.00 0.00 0.00 81 1008.5
20260901034030 64 0 0.0 1.0 0.00 0.00 0.00 80 1008.5
20260901033524 65 42 0.0 1.0 0.00 0.00 0.00 78 1008.3
20260901033050 65 0 0.0 1.0 0.00 0.00 0.00 76 1008.2
20260901032525 66 38 0.0 1.0 0.00 0.00 0.00 76 1008.1
20260901032029 66 0 0.0 0.0 0.00 0.00 0.00 75 1008.2
20260901031547 67 0 0.0 0.0 0.00 0.00 0.00 74 1008.1
20260901031027 67 0 0.0 0.0 0.00 0.00 0.00 73 1008.1
20260901030527 68 0 0.0 1.0 0.00 0.00 0.00 71 1008.0
20260901030054 69 0 0.0 1.0 0.00 0.00 0.00 72 1008.0
20260901025529 70 38 0.0 1.0 0.00 0.00 0.00 70 1007.9
20260901025029 71 0 0.0 1.0 0.00 0.00 0.00 67 1007.9
20260901024554 72 0 0.0 1.0 0.00 0.00 0.00 65 1007.9
20260901024031 73 0 0.0 1.0 0.00 0.00 0.00 63 1007.7
20260901023530 74 0 0.0 1.0 0.00 0.00 0.00 60 1007.6
20260901023048 75 0 0.0 1.0 0.00 0.00 0.00 57 1007.7
20260901022528 77 0 0.0 1.0 0.00 0.00 0.00 54 1007.6
20260901022029 78 0 0.0 2.0 0.00 0.00 0.00 52 1007.7
20260901021606 79 0 0.0 2.0 0.00 0.00 0.00 51 1007.7
20260901021025 79 33 0.0 4.0 0.00 0.00 0.00 50 1007.7
20260901020525 79 38 1.0 4.0 0.00 0.00 0.00 48 1007.7
20260901020107 80 350 1.0 3.0 0.00 0.00 0.00 48 1007.8
20260901015528 80 17 1.0 3.0 0.00 0.00 0.00 48 1007.8
20260901015027 80 351 0.0 5.0 0.00 0.00 0.00 47 1007.8
20260901014549 80 24 1.0 5.0 0.00 0.00 0.00 47 1007.8
20260901014033 80 342 2.0 7.0 0.00 0.00 0.00 47 1007.8
20260901013529 80 40 3.0 8.0 0.00 0.00 0.00 47 1007.8
20260901013054 80 36 3.0 8.0 0.00 0.00 0.00 46 1007.9
20260901012524 80 360 4.0 8.0 0.00 0.00 0.00 46 1007.9
20260901012024 80 14 4.0 7.0 0.00 0.00 0.00 46 1007.9
20260901011550 81 42 2.0 10.0 0.00 0.00 0.00 46 1008.1
20260901011028 81 76 1.0 10.0 0.00 0.00 0.00 46 1008.0
20260901010528 81 28 3.0 10.0 0.00 0.00 0.00 45 1008.1
20260901010051 80 329 2.0 7.0 0.00 0.00 0.00 47 1008.2
20260901005529 80 335 3.0 7.0 0.00 0.00 0.00 47 1008.2
20260901005028 80 20 2.0 8.0 0.00 0.00 0.00 48 1008.3
20260901004604 80 324 3.0 8.0 0.00 0.00 0.00 48 1008.3
20260901004028 80 331 2.0 8.0 0.00 0.00 0.00 48 1008.3
20260901003529 80 36 1.0 8.0 0.00 0.00 0.00 47 1008.3
20260901003054 80 86 2.0 5.0 0.00 0.00 0.00 46 1008.3
20260901002527 80 10 2.0 8.0 0.00 0.00 0.00 46 1008.3
20260901002029 80 92 3.0 8.0 0.00 0.00 0.00 47 1008.3
20260901001550 80 325 1.0 9.0 0.00 0.00 0.00 49 1008.4
20260901001028 79 19 5.0 9.0 0.00 0.00 0.00 47 1008.4
20260901000528 80 352 4.0 7.0 0.00 0.00 0.00 49 1008.4
20260901000105 80 75 2.0 12.0 0.00 0.00 0.00 47 1008.6
20260831235529 79 88 3.0 12.0 0.00 0.00 0.00 48 1008.5
20260831235027 79 292 4.0 8.0 0.00 0.00 0.00 48 1008.6
20260831234545 79 74 4.0 8.0 0.00 0.00 0.00 50 1008.7
20260831234028 78 325 3.0 9.0 0.00 0.00 0.00 50 1008.7
20260831233532 77 318 4.0 9.0 0.00 0.00 0.00 51 1008.7
20260831233050 78 307 3.0 9.0 0.00 0.00 0.00 51 1008.7
20260831232524 79 304 4.0 9.0 0.00 0.00 0.00 48 1008.7
20260831232024 79 347 1.0 9.0 0.00 0.00 0.00 49 1008.8
20260831231552 79 348 3.0 8.0 0.00 0.00 0.00 49 1008.9
20260831231025 79 348 2.0 11.0 0.00 0.00 0.00 50 1008.9
20260831230529 79 50 4.0 11.0 0.00 0.00 0.00 48 1009.0
20260831230058 79 52 6.0 11.0 0.00 0.00 0.00 48 1009.1
20260831225529 78 355 3.0 9.0 0.00 0.00 0.00 51 1009.1
20260831225032 78 5 4.0 10.0 0.00 0.00 0.00 52 1009.1
20260831224553 78 319 5.0 10.0 0.00 0.00 0.00 51 1009.1
20260831224025 77 344 6.0 13.0 0.00 0.00 0.00 51 1009.2
20260831223530 77 76 4.0 13.0 0.00 0.00 0.00 52 1009.1
20260831223056 77 309 7.0 13.0 0.00 0.00 0.00 52 1009.1
20260831222527 78 335 3.0 11.0 0.00 0.00 0.00 52 1009.3
20260831222030 77 28 7.0 11.0 0.00 0.00 0.00 52 1009.4
20260831221558 77 5 4.0 11.0 0.00 0.00 0.00 55 1009.4
20260831221033 77 56 5.0 14.0 0.00 0.00 0.00 54 1009.5
20260831220527 76 9 8.0 14.0 0.00 0.00 0.00 54 1009.7
20260831220057 76 275 5.0 9.0 0.00 0.00 0.00 56 1009.7
20260831215524 76 28 5.0 11.0 0.00 0.00 0.00 55 1009.8
20260831215025 76 319 4.0 12.0 0.00 0.00 0.00 57 1009.9
20260831214552 75 338 6.0 18.0 0.00 0.00 0.00 57 1010.0
20260831214028 75 355 8.0 18.0 0.00 0.00 0.00 56 1010.0
20260831213529 76 9 7.0 13.0 0.00 0.00 0.00 55 1010.2
20260831213055 76 331 6.0 11.0 0.00 0.00 0.00 56 1010.2
20260831212531 75 360 4.0 9.0 0.00 0.00 0.00 57 1010.3
20260831212031 75 329 5.0 10.0 0.00 0.00 0.00 57 1010.4
20260831211553 74 23 3.0 11.0 0.00 0.00 0.00 59 1010.4
20260831211027 74 32 4.0 14.0 0.00 0.00 0.00 58 1010.4
20260831210526 74 323 5.0 14.0 0.00 0.00 0.00 56 1010.5
20260831210051 75 10 5.0 13.0 0.00 0.00 0.00 57 1010.6
20260831205524 75 74 2.0 15.0 0.00 0.00 0.00 56 1010.5
20260831205026 74 350 5.0 15.0 0.00 0.00 0.00 58 1010.8
20260831204550 74 349 9.0 15.0 0.00 0.00 0.00 58 1010.8
20260831204034 74 22 6.0 12.0 0.00 0.00 0.00 59 1010.8
20260831203530 73 33 4.0 14.0 0.00 0.00 0.00 60 1010.8
20260831203052 73 30 8.0 14.0 0.00 0.00 0.00 60 1010.9
20260831202528 73 325 6.0 13.0 0.00 0.00 0.00 60 1010.8
20260831202029 73 331 3.0 11.0 0.00 0.00 0.00 60 1010.9
20260831201550 72 351 7.0 11.0 0.00 0.00 0.00 59 1011.0
20260831201026 72 50 4.0 13.0 0.00 0.00 0.00 63 1011.2
20260831200525 72 108 7.0 13.0 0.00 0.00 0.00 62 1011.3
20260831200108 71 17 7.0 13.0 0.00 0.00 0.00 62 1011.4
20260831195528 71 350 8.0 16.0 0.00 0.00 0.00 62 1011.5
20260831195028 71 19 7.0 16.0 0.00 0.00 0.00 62 1011.6
20260831194615 71 333 4.0 11.0 0.00 0.00 0.00 63 1011.5
20260831194027 70 34 5.0 17.0 0.00 0.00 0.00 64 1011.7
20260831193528 70 329 7.0 17.0 0.00 0.00 0.00 64 1011.8
20260831193053 71 323 8.0 13.0 0.00 0.00 0.00 63 1011.9
20260831192524 70 331 7.0 14.0 0.00 0.00 0.00 64 1012.0
20260831192028 71 348 5.0 14.0 0.00 0.00 0.00 65 1012.0
20260831191553 70 151 2.0 15.0 0.00 0.00 0.00 67 1012.0
20260831191024 69 318 5.0 15.0 0.00 0.00 0.00 66 1012.1
20260831190524 69 316 7.0 15.0 0.00 0.00 0.00 68 1012.1
20260831185524 68 331 8.0 14.0 0.00 0.00 0.00 68 1012.3
20260831185023 68 308 9.0 15.0 0.00 0.00 0.00 68 1012.3
20260831184559 68 346 6.0 15.0 0.00 0.00 0.00 71 1012.4
20260831184028 68 341 5.0 11.0 0.00 0.00 0.00 70 1012.4
20260831183527 68 105 5.0 13.0 0.00 0.00 0.00 70 1012.4
20260831183051 68 117 5.0 13.0 0.00 0.00 0.00 71 1012.3
20260831182524 68 340 6.0 13.0 0.00 0.00 0.00 70 1012.5
20260831182025 67 67 5.0 16.0 0.00 0.00 0.00 71 1012.6
20260831181551 67 71 6.0 16.0 0.00 0.00 0.00 73 1012.6
20260831181028 67 18 4.0 14.0 0.00 0.00 0.00 73 1012.6
20260831180528 67 23 7.0 14.0 0.00 0.00 0.00 72 1012.7
20260831180050 67 342 4.0 13.0 0.00 0.00 0.00 73 1012.8
20260831175527 67 323 6.0 13.0 0.00 0.00 0.00 73 1012.8
20260831175029 67 49 6.0 14.0 0.00 0.00 0.00 72 1012.7
20260831174554 66 311 4.0 14.0 0.00 0.00 0.00 74 1012.8
20260831174028 66 21 6.0 13.0 0.00 0.00 0.00 74 1012.9
20260831173524 66 346 4.0 13.0 0.00 0.00 0.00 76 1012.9
20260831173053 65 96 4.0 13.0 0.00 0.00 0.00 76 1013.0
20260831172524 65 344 3.0 14.0 0.00 0.00 0.00 78 1013.1
20260831172028 64 345 6.0 14.0 0.00 0.00 0.00 77 1013.1
20260831171548 64 320 4.0 13.0 0.00 0.00 0.00 77 1013.1
20260831171028 64 57 6.0 13.0 0.00 0.00 0.00 77 1013.2
20260831170525 64 341 4.0 13.0 0.00 0.00 0.00 78 1013.2
20260831170047 63 67 5.0 13.0 0.00 0.00 0.00 80 1013.1
20260831165528 63 337 8.0 13.0 0.00 0.00 0.00 80 1013.2
20260831165027 63 339 4.0 12.0 0.00 0.00 0.00 82 1013.2
20260831164600 62 90 5.0 11.0 0.00 0.00 0.00 82 1013.3
20260831164024 63 19 5.0 11.0 0.00 0.00 0.00 82 1013.3
20260831163527 62 323 4.0 9.0 0.00 0.00 0.00 84 1013.4
20260831163052 62 9 4.0 9.0 0.00 0.00 0.00 86 1013.6
20260831162533 62 36 4.0 11.0 0.00 0.00 0.00 86 1013.6
20260831162028 61 343 4.0 11.0 0.00 0.00 0.00 88 1013.5
20260831161549 61 360 4.0 14.0 0.00 0.00 0.00 89 1013.7
20260831161030 60 35 4.0 14.0 0.00 0.00 0.00 91 1013.7
20260831160528 60 9 3.0 9.0 0.00 0.00 0.00 94 1013.6
20260831160103 59 338 3.0 9.0 0.00 0.00 0.00 95 1013.7
20260831155530 58 23 4.0 9.0 0.00 0.00 0.00 96 1013.8
20260831155030 58 328 2.0 9.0 0.00 0.00 0.00 97 1013.8
20260831154656 57 13 2.0 8.0 0.00 0.00 0.00 98 1013.9
20260831154025 57 347 2.0 5.0 0.00 0.00 0.00 98 1013.9
20260831153528 56 13 2.0 5.0 0.00 0.00 0.00 99 1014.0
20260831153050 55 333 2.0 5.0 0.00 0.00 0.00 99 1013.9
20260831152524 54 327 1.0 2.0 0.00 0.00 0.00 98 1014.0
20260831152025 53 11 0.0 2.0 0.00 0.00 0.00 98 1014.0
20260831151556 51 20 0.0 1.0 0.00 0.00 0.00 98 1014.1
20260831151023 50 0 0.0 0.0 0.00 0.00 0.00 98 1014.1
20260831150525 50 0 0.0 0.0 0.00 0.00 0.00 98 1014.1
20260831150055 50 0 0.0 0.0 0.00 0.00 0.00 98 1014.3
20260831145530 49 0 0.0 0.0 0.00 0.00 0.00 98 1014.3
20260831145024 48 0 0.0 0.0 0.00 0.00 0.00 98 1014.2
20260831144547 48 0 0.0 0.0 0.00 0.00 0.00 98 1014.2
20260831144024 47 0 0.0 0.0 0.00 0.00 0.00 98 1014.3
20260831143526 46 0 0.0 0.0 0.00 0.00 0.00 98 1014.4
20260831143109 45 0 0.0 0.0 0.00 0.00 0.00 98 1014.2
20260831142527 45 0 0.0 0.0 0.00 0.00 0.00 98 1014.2
20260831142023 45 0 0.0 0.0 0.00 0.00 0.00 98 1014.1
20260831141610 45 0 0.0 0.0 0.00 0.00 0.00 98 1014.2
20260831141024 45 0 0.0 0.0 0.00 0.00 0.00 98 1014.3
20260831140527 45 0 0.0 0.0 0.00 0.00 0.00 98 1014.3
20260831140055 44 0 0.0 0.0 0.00 0.00 0.00 97 1014.1
20260831135528 44 0 0.0 0.0 0.00 0.00 0.00 97 1014.2
20260831135028 45 0 0.0 0.0 0.00 0.00 0.00 97 1014.2
20260831134546 45 0 0.0 0.0 0.00 0.00 0.00 97 1014.2
20260831134026 45 0 0.0 0.0 0.00 0.00 0.00 97 1014.2
20260831133527 45 0 0.0 0.0 0.00 0.00 0.00 97 1014.2
20260831133050 45 0 0.0 0.0 0.00 0.00 0.00 97 1014.2
20260831132524 45 0 0.0 1.0 0.00 0.00 0.00 98 1014.3
20260831132028 45 0 0.0 1.0 0.00 0.00 0.00 98 1014.2
20260831131554 45 0 0.0 0.0 0.00 0.00 0.00 98 1014.3
20260831131028 45 0 0.0 0.0 0.00 0.00 0.00 98 1014.3
20260831130528 45 0 0.0 0.0 0.00 0.00 0.00 97 1014.4
20260831130054 45 0 0.0 0.0 0.00 0.00 0.00 97 1014.4
20260831125530 45 0 0.0 0.0 0.00 0.00 0.00 97 1014.4
20260831125027 45 0 0.0 0.0 0.00 0.00 0.00 97 1014.4
20260831124556 45 0 0.0 0.0 0.00 0.00 0.00 97 1014.5
20260831124031 45 0 0.0 0.0 0.00 0.00 0.00 97 1014.4
20260831123527 45 0 0.0 0.0 0.00 0.00 0.00 97 1014.5
20260831123049 45 0 0.0 0.0 0.00 0.00 0.00 97 1014.5
20260831122528 45 0 0.0 0.0 0.00 0.00 0.00 97 1014.5
20260831122024 45 0 0.0 0.0 0.00 0.00 0.00 97 1014.7
20260831121554 45 0 0.0 0.0 0.00 0.00 0.00 97 1014.6
20260831121030 45 0 0.0 0.0 0.00 0.00 0.00 97 1014.7
20260831120529 45 0 0.0 0.0 0.00 0.00 0.00 97 1014.8
20260831120053 45 0 0.0 0.0 0.00 0.00 0.00 97 1014.9
20260831115527 45 0 0.0 0.0 0.00 0.00 0.00 97 1014.8
20260831115030 45 0 0.0 0.0 0.00 0.00 0.00 97 1014.9
20260831114550 46 0 0.0 0.0 0.00 0.00 0.00 97 1014.9
20260831114024 46 0 0.0 0.0 0.00 0.00 0.00 97 1014.9
20260831113524 46 0 0.0 0.0 0.00 0.00 0.00 97 1014.8
20260831113047 46 0 0.0 0.0 0.00 0.00 0.00 97 1014.9
20260831112528 46 0 0.0 0.0 0.00 0.00 0.00 97 1014.9
20260831112024 46 0 0.0 0.0 0.00 0.00 0.00 97 1015.0
20260831111550 47 0 0.0 0.0 0.00 0.00 0.00 97 1015.0
20260831111027 47 0 0.0 0.0 0.00 0.00 0.00 97 1015.0
20260831110529 47 0 0.0 0.0 0.00 0.00 0.00 97 1015.0
20260831110056 47 0 0.0 0.0 0.00 0.00 0.00 97 1014.9
20260831105524 47 0 0.0 0.0 0.00 0.00 0.00 97 1015.0
20260831105029 47 0 0.0 0.0 0.00 0.00 0.00 97 1015.0
20260831104558 47 0 0.0 0.0 0.00 0.00 0.00 97 1015.0
20260831104025 47 0 0.0 0.0 0.00 0.00 0.00 97 1015.0
20260831103523 47 0 0.0 0.0 0.00 0.00 0.00 97 1015.0
20260831103050 48 0 0.0 0.0 0.00 0.00 0.00 97 1015.1
20260831102523 47 0 0.0 0.0 0.00 0.00 0.00 97 1015.1
20260831102031 47 0 0.0 0.0 0.00 0.00 0.00 97 1015.2
20260831101607 48 0 0.0 0.0 0.00 0.00 0.00 97 1015.2
20260831101024 48 0 0.0 0.0 0.00 0.00 0.00 97 1015.3
20260831100523 48 0 0.0 0.0 0.00 0.00 0.00 97 1015.4
20260831100056 48 0 0.0 0.0 0.00 0.00 0.00 97 1015.4
20260831095522 48 0 0.0 0.0 0.00 0.00 0.00 97 1015.5
20260831095028 48 0 0.0 0.0 0.00 0.00 0.00 97 1015.5
20260831094552 48 0 0.0 0.0 0.00 0.00 0.00 96 1015.6
20260831094024 48 0 0.0 0.0 0.00 0.00 0.00 97 1015.6
20260831093525 48 0 0.0 0.0 0.00 0.00 0.00 97 1015.5
20260831093053 48 0 0.0 1.0 0.00 0.00 0.00 97 1015.6
20260831092526 48 0 0.0 1.0 0.00 0.00 0.00 97 1015.7
20260831092025 48 0 0.0 0.0 0.00 0.00 0.00 96 1015.8
20260831091547 49 0 0.0 1.0 0.00 0.00 0.00 96 1015.7
20260831091029 49 0 0.0 1.0 0.00 0.00 0.00 96 1015.6
20260831090527 49 331 0.0 1.0 0.00 0.00 0.00 96 1015.7
20260831090104 50 0 0.0 1.0 0.00 0.00 0.00 96 1015.7
20260831085528 50 331 0.0 1.0 0.00 0.00 0.00 97 1015.7
20260831085027 50 0 0.0 0.0 0.00 0.00 0.00 97 1015.8
20260831084549 50 0 0.0 0.0 0.00 0.00 0.00 97 1015.8
20260831084031 50 0 0.0 0.0 0.00 0.00 0.00 97 1015.8
20260831083529 50 0 0.0 0.0 0.00 0.00 0.00 96 1015.9
20260831083046 50 0 0.0 0.0 0.00 0.00 0.00 96 1016.0
20260831082527 50 0 0.0 0.0 0.00 0.00 0.00 96 1016.0
20260831082029 50 0 0.0 0.0 0.00 0.00 0.00 96 1016.2
20260831081550 50 0 0.0 0.0 0.00 0.00 0.00 96 1016.2
20260831081025 50 0 0.0 0.0 0.00 0.00 0.00 96 1016.3
20260831080525 51 0 0.0 0.0 0.00 0.00 0.00 96 1016.1
20260831080051 51 0 0.0 0.0 0.00 0.00 0.00 96 1016.3
20260831075528 51 0 0.0 0.0 0.00 0.00 0.00 96 1016.3
20260831075028 51 0 0.0 1.0 0.00 0.00 0.00 96 1016.3
20260831074552 51 0 0.0 1.0 0.00 0.00 0.00 96 1016.3
20260831074032 51 0 0.0 0.0 0.00 0.00 0.00 96 1016.4
20260831073532 51 0 0.0 0.0 0.00 0.00 0.00 96 1016.4
20260831073103 51 0 0.0 0.0 0.00 0.00 0.00 96 1016.4
20260831072528 51 0 0.0 0.0 0.00 0.00 0.00 96 1016.4
20260831072033 51 0 0.0 1.0 0.00 0.00 0.00 96 1016.5
20260831071554 51 0 0.0 1.0 0.00 0.00 0.00 96 1016.5
20260831071025 51 0 0.0 0.0 0.00 0.00 0.00 96 1016.5
20260831070524 51 0 0.0 0.0 0.00 0.00 0.00 95 1016.6
20260831070054 52 0 0.0 0.0 0.00 0.00 0.00 95 1016.6
20260831065529 52 0 0.0 0.0 0.00 0.00 0.00 96 1016.6
20260831065030 52 0 0.0 0.0 0.00 0.00 0.00 95 1016.7
20260831064600 52 0 0.0 0.0 0.00 0.00 0.00 95 1016.7
20260831064030 52 0 0.0 0.0 0.00 0.00 0.00 95 1016.8
20260831063527 52 0 0.0 0.0 0.00 0.00 0.00 95 1016.9
20260831063053 53 0 0.0 0.0 0.00 0.00 0.00 95 1016.9
20260831062527 53 0 0.0 0.0 0.00 0.00 0.00 95 1017.0
20260831062024 53 0 0.0 0.0 0.00 0.00 0.00 95 1017.0
20260831061559 53 0 0.0 0.0 0.00 0.00 0.00 94 1017.1
20260831061028 53 0 0.0 0.0 0.00 0.00 0.00 94 1017.1
20260831060524 53 0 0.0 0.0 0.00 0.00 0.00 94 1017.1
20260831060104 53 0 0.0 0.0 0.00 0.00 0.00 94 1017.1
20260831055524 54 0 0.0 0.0 0.00 0.00 0.00 94 1017.1
20260831055027 54 0 0.0 0.0 0.00 0.00 0.00 94 1017.1
20260831054553 54 0 0.0 0.0 0.00 0.00 0.00 94 1017.1
20260831054027 54 0 0.0 0.0 0.00 0.00 0.00 94 1017.3
20260831053527 54 0 0.0 0.0 0.00 0.00 0.00 93 1017.3
20260831053053 54 0 0.0 0.0 0.00 0.00 0.00 93 1017.3
20260831052531 54 0 0.0 0.0 0.00 0.00 0.00 93 1017.3
20260831052028 55 0 0.0 0.0 0.00 0.00 0.00 93 1017.4
20260831051559 55 0 0.0 0.0 0.00 0.00 0.00 93 1017.4
20260831051028 55 0 0.0 0.0 0.00 0.00 0.00 93 1017.5
20260831050523 55 0 0.0 0.0 0.00 0.00 0.00 92 1017.6
20260831050059 55 0 0.0 0.0 0.00 0.00 0.00 92 1017.4
20260831045525 55 0 0.0 0.0 0.00 0.00 0.00 92 1017.6
20260831045030 56 0 0.0 0.0 0.00 0.00 0.00 91 1017.5
20260831044550 56 0 0.0 0.0 0.00 0.00 0.00 91 1017.6